West Point, VA

3:37 PM EDT on July 28, 2017 (GMT -0400)
West Point

Weather History for KFYJ - February, 2013

Change the Weather History Date:

Friday, February 1, 2013

  Actual Average (KJGG) Record (KJGG)
Temperature  
Mean Temperature 32 °F -  
Max Temperature 40 °F 51 °F 78 °F (2016)
Min Temperature 23 °F 28 °F 3 °F (1965)
Degree Days  
Heating Degree Days 34    
Moisture  
Dew Point 15 °F    
Average Humidity 47    
Maximum Humidity 69    
Minimum Humidity 28    
Precipitation  
Precipitation 0.00 in - - ()
Sea Level Pressure  
Sea Level Pressure 30.12 in    
Wind  
Wind Speed 10 mph (West)    
Max Wind Speed 26 mph    
Max Gust Speed 39 mph    
Visibility 10 miles    
Events      
Averages and records for this station are not official NWS values.
T = Trace of Precipitation, MM = Missing Value Source: NWS Daily Summary

Daily Weather History Graph

Daily Weather History Graph

Search for Another Location

Airport or City:

Trip Planner

Search our weather history database for the weather conditions in past years. The results will help you decide how hot, cold, wet, or windy it might be!

Date:

Astronomy

Feb. 01, 2013 Rise Set
Actual Time 7:10 AM EST 5:31 PM EST
Civil Twilight 6:42 AM EST 5:58 PM EST
Nautical Twilight 6:11 AM EST 6:30 PM EST
Astronomical Twilight 5:40 AM EST 7:01 PM EST
Moon 11:27 PM EST (2/1) 9:50 AM EST (2/1)
Length of Visible Light 11h 16m
Length of Day
10h 21m
Waning Gibbous, 70% of the Moon is Illuminated
Feb 1
Waning Gibbous
Feb 3
Last Quarter
Feb 10
New
Feb 17
First Quarter
Feb 25
Full

Hourly Weather History & Observations

Time (EST) Temp. Windchill Dew Point Humidity Pressure Visibility Wind Dir Wind Speed Gust Speed Precip Events Conditions
12:15 AM 34.7 °F 29.6 °F 22.1 °F 60% 29.99 in 10.0 mi SW 5.8 mph - N/A   Clear
12:35 AM 34.7 °F 30.6 °F 22.5 °F 61% 29.98 in 10.0 mi SSW 4.6 mph - N/A   Clear
12:55 AM 34.7 °F 29.6 °F 23.0 °F 62% 29.98 in 10.0 mi SSW 5.8 mph - N/A   Clear
1:15 AM 34.7 °F 30.6 °F 23.4 °F 63% 29.98 in 10.0 mi South 4.6 mph - N/A   Clear
1:35 AM 34.7 °F 30.6 °F 23.4 °F 63% 29.98 in 10.0 mi South 4.6 mph - N/A   Clear
1:55 AM 34.7 °F 28.8 °F 23.9 °F 65% 29.98 in 10.0 mi South 6.9 mph - N/A   Clear
2:15 AM 34.3 °F 29.2 °F 23.9 °F 66% 29.97 in 10.0 mi South 5.8 mph - N/A   Mostly Cloudy
2:35 AM 34.2 °F 28.2 °F 23.9 °F 66% 29.95 in 10.0 mi SSE 6.9 mph - N/A   Scattered Clouds
2:55 AM 34.0 °F 29.8 °F 23.9 °F 67% 29.93 in 10.0 mi SSE 4.6 mph - N/A   Clear
3:15 AM 34.7 °F 29.6 °F 25.2 °F 68% 29.91 in 10.0 mi SSE 5.8 mph - N/A   Scattered Clouds
3:35 AM 34.7 °F 28.8 °F 25.5 °F 69% 29.88 in 10.0 mi SSE 6.9 mph - N/A   Scattered Clouds
3:55 AM 36.0 °F 29.6 °F 25.2 °F 65% 29.87 in 10.0 mi SSE 8.1 mph - N/A   Scattered Clouds
4:15 AM 35.6 °F 28.6 °F 25.2 °F 66% 29.86 in 10.0 mi South 9.2 mph - N/A   Clear
4:35 AM 36.1 °F 29.3 °F 25.2 °F 64% 29.85 in 10.0 mi South 9.2 mph - N/A   Mostly Cloudy
4:55 AM 36.9 °F 31.4 °F 25.2 °F 63% 29.84 in 10.0 mi South 6.9 mph - N/A   Overcast
5:15 AM 37.8 °F 31.8 °F 25.5 °F 61% 29.83 in 10.0 mi South 8.1 mph - N/A   Overcast
5:35 AM 39.2 °F 31.6 °F 25.7 °F 58% 29.83 in 10.0 mi SSW 12.7 mph 18.4 mph N/A   Overcast
5:55 AM 39.0 °F 31.8 °F 25.7 °F 59% 29.82 in 10.0 mi SSW 11.5 mph 17.3 mph N/A   Overcast
6:15 AM 38.8 °F 31.6 °F 26.1 °F 60% 29.83 in 10.0 mi SSW 11.5 mph 17.3 mph N/A   Overcast
6:35 AM 39.2 °F 31.2 °F 26.6 °F 61% 29.84 in 10.0 mi SW 13.8 mph 18.4 mph N/A   Overcast
6:55 AM 39.9 °F 30.5 °F 27.3 °F 61% 29.87 in 10.0 mi WSW 19.6 mph 25.3 mph N/A   Overcast
7:15 AM 40.1 °F 31.0 °F 28.4 °F 63% 29.88 in 10.0 mi West 18.4 mph 27.6 mph N/A   Overcast
7:35 AM 40.1 °F 31.6 °F 27.5 °F 61% 29.89 in 10.0 mi West 16.1 mph 21.9 mph N/A   Overcast
7:55 AM 39.2 °F 30.2 °F 27.3 °F 62% 29.93 in 10.0 mi WNW 17.3 mph 36.8 mph N/A   Overcast
8:15 AM 37.4 °F 26.6 °F 25.9 °F 63% 29.97 in 10.0 mi WNW 21.9 mph 27.6 mph N/A   Overcast
8:35 AM 36.5 °F 26.7 °F 25.2 °F 64% 29.98 in 10.0 mi WNW 17.3 mph 28.8 mph N/A   Overcast
8:55 AM 36.5 °F 25.7 °F 24.3 °F 61% 30.01 in 10.0 mi West 20.7 mph 28.8 mph N/A   Overcast
9:15 AM 36.7 °F 26.3 °F 14.7 °F 41% 30.02 in 10.0 mi WNW 19.6 mph 31.1 mph N/A   Scattered Clouds
9:35 AM 36.0 °F 25.3 °F 11.1 °F 36% 30.03 in 10.0 mi WNW 19.6 mph 31.1 mph N/A   Clear
9:55 AM 36.5 °F 25.4 °F 7.5 °F 30% 30.05 in 10.0 mi West 21.9 mph 32.2 mph N/A   Clear
10:15 AM 36.0 °F 24.7 °F 5.7 °F 28% 30.06 in 10.0 mi West 21.9 mph 39.1 mph N/A   Clear
10:35 AM 36.1 °F 25.5 °F 9.3 °F 33% 30.08 in 10.0 mi West 19.6 mph 33.4 mph N/A   Clear
10:55 AM 35.8 °F 24.2 °F 7.9 °F 31% 30.09 in 10.0 mi West 23.0 mph 38.0 mph N/A   Clear
11:15 AM 36.5 °F 25.4 °F 10.4 °F 34% 30.11 in 10.0 mi West 21.9 mph 33.4 mph N/A   Clear
11:35 AM 36.5 °F 26.7 °F 10.0 °F 34% 30.11 in 10.0 mi WNW 17.3 mph 25.3 mph N/A   Clear
11:55 AM 36.3 °F 25.5 °F 9.5 °F 33% 30.13 in 10.0 mi West 20.7 mph 31.1 mph N/A   Clear
12:15 PM 36.3 °F 24.2 °F 9.1 °F 32% 30.13 in 10.0 mi West 26.5 mph 31.1 mph N/A   Clear
12:35 PM 36.7 °F 28.0 °F 9.7 °F 33% 30.14 in 10.0 mi West 13.8 mph 24.2 mph N/A   Clear
12:55 PM 36.7 °F 26.9 °F 10.2 °F 34% 30.15 in 10.0 mi West 17.3 mph 29.9 mph N/A   Scattered Clouds
1:15 PM 36.3 °F 26.4 °F 8.8 °F 32% 30.15 in 10.0 mi WNW 17.3 mph 26.5 mph N/A   Mostly Cloudy
1:35 PM 34.7 °F 24.3 °F 8.6 °F 34% 30.16 in 10.0 mi West 17.3 mph 31.1 mph N/A   Scattered Clouds
1:55 PM 34.7 °F 23.4 °F 9.0 °F 34% 30.17 in 10.0 mi West 20.7 mph 31.1 mph N/A   Clear
2:15 PM 34.5 °F 24.1 °F 8.8 °F 34% 30.18 in 10.0 mi West 17.3 mph 25.3 mph N/A   Clear
2:35 PM 34.0 °F 23.0 °F 8.4 °F 34% 30.18 in 10.0 mi West 18.4 mph 25.3 mph N/A   Clear
2:55 PM 34.3 °F 24.2 °F 8.8 °F 35% 30.20 in 10.0 mi West 16.1 mph 28.8 mph N/A   Clear
3:15 PM 34.2 °F 25.2 °F 8.4 °F 34% 30.20 in 10.0 mi West 12.7 mph 21.9 mph N/A   Clear
3:35 PM 33.8 °F 24.8 °F 6.8 °F 32% 30.21 in 10.0 mi WNW 12.7 mph 20.7 mph N/A   Clear
4:15 PM 33.4 °F 24.3 °F 6.8 °F 33% 30.24 in 10.0 mi West 12.7 mph 25.3 mph N/A   Clear
4:35 PM 33.1 °F 24.4 °F 5.5 °F 31% 30.24 in 10.0 mi WNW 11.5 mph 16.1 mph N/A   Clear
4:55 PM 32.2 °F 22.3 °F 6.1 °F 33% 30.25 in 10.0 mi West 13.8 mph 23.0 mph N/A   Clear
5:15 PM 32.0 °F 22.5 °F 6.4 °F 34% 30.26 in 10.0 mi West 12.7 mph 19.6 mph N/A   Clear
5:35 PM 31.8 °F 21.4 °F 6.6 °F 35% 30.27 in 10.0 mi WNW 15.0 mph 20.7 mph N/A   Clear
5:55 PM 31.5 °F 22.3 °F 6.1 °F 34% 30.28 in 10.0 mi WNW 11.5 mph 19.6 mph N/A   Clear
6:15 PM 30.9 °F 24.3 °F 5.0 °F 33% 30.29 in 10.0 mi WNW 6.9 mph - N/A   Clear
6:35 PM 30.4 °F 25.6 °F 5.0 °F 34% 30.30 in 10.0 mi NW 4.6 mph - N/A   Clear
6:55 PM 30.0 °F 26.5 °F 5.2 °F 35% 30.31 in 10.0 mi NW 3.5 mph - N/A   Clear
7:15 PM 29.1 °F - 7.3 °F 40% 30.32 in 10.0 mi Calm Calm - N/A   Clear
7:35 PM 28.4 °F - 7.0 °F 40% 30.32 in 10.0 mi Calm Calm - N/A   Clear
7:55 PM 28.6 °F - 6.8 °F 40% 30.33 in 10.0 mi Calm Calm - N/A   Clear
8:15 PM 28.0 °F - 7.9 °F 43% 30.34 in 10.0 mi Calm Calm - N/A   Clear
8:35 PM 27.5 °F 23.6 °F 8.4 °F 45% 30.36 in 10.0 mi NW 3.5 mph - N/A   Clear
8:55 PM 27.5 °F 22.2 °F 7.3 °F 43% 30.36 in 10.0 mi NNW 4.6 mph - N/A   Clear
9:15 PM 27.0 °F 21.6 °F 5.9 °F 41% 30.37 in 10.0 mi NNW 4.6 mph - N/A   Clear
9:35 PM 26.4 °F 22.4 °F 7.0 °F 44% 30.38 in 10.0 mi NNW 3.5 mph - N/A   Clear
9:55 PM 26.1 °F 21.9 °F 8.1 °F 47% 30.39 in 10.0 mi North 3.5 mph - N/A   Clear
10:15 PM 25.5 °F 21.3 °F 7.7 °F 47% 30.39 in 10.0 mi NNW 3.5 mph - N/A   Clear
10:35 PM 25.2 °F 20.9 °F 8.2 °F 49% 30.40 in 10.0 mi NNW 3.5 mph - N/A   Clear
10:55 PM 24.6 °F - 8.1 °F 49% 30.40 in 10.0 mi Calm Calm - N/A   Clear
11:15 PM 24.1 °F - 8.2 °F 51% 30.41 in 10.0 mi Calm Calm - N/A   Clear
11:35 PM 23.7 °F - 9.5 °F 55% 30.41 in 10.0 mi Calm Calm - N/A   Clear
11:55 PM 23.0 °F - 10.6 °F 59% 30.41 in 10.0 mi Calm Calm - N/A   Clear